Regional Weather Roundup
Issued by NWS Sioux Falls, SD

Home | Current Version | Previous Version | Graphics & Text | Print | Product List | Glossary Off
Versions: 1 2 3 4 5 6 7 8 9 10 11 12 13 14 15 16 17 18 19 20 21 22 23 24 25 26 27 28 29 30 31 32 33 34 35 36 37 38 39 40 41 42 43 44 45 46 47 48 49 50

000
ASUS43 KFSD 201402
RWRFSD

WEATHER ROUNDUP FOR SE SOUTH DAKOTA/SW MINNESOTA/NW IOWA
NATIONAL WEATHER SERVICE SIOUX FALLS SD
800 AM CST SAT JAN 20 2018

NOTE: "FAIR" INDICATES FEW OR NO CLOUDS BELOW 12,000 FEET WITH NO
SIGNIFICANT WEATHER AND OR OBSTRUCTIONS TO VISIBILITY.


SDZ038>040-050-052>070-201500-
SOUTHEAST SOUTH DAKOTA

CITY           SKY/WX    TMP DP  RH WIND       PRES   REMARKS
BROOKINGS      CLOUDY    22  21  96 CALM      29.83S
CHAMBERLAIN    CLEAR     27  27 100 CALM      29.86R
HURON          MOCLDY    26  24  92 CALM      29.85R
MADISON        FAIR      27  27 100 NE5       29.82S WCI  21
MITCHELL       MOCLDY    25  24  96 W3        29.85S
SIOUX FALLS    CLOUDY    23  21  92 CALM      29.84S
WINNER         FAIR      30  27  88 W6        29.86R WCI  24
YANKTON        CLOUDY    27  26  96 NW5       29.85R WCI  22
$$

MNZ071-072-080-081-089-090-097-098-201500-
SOUTHWEST MINNESOTA

CITY           SKY/WX    TMP DP  RH WIND       PRES   REMARKS
FAIRMONT       CLOUDY    26  25  96 W5        29.86R WCI  20
JACKSON        CLOUDY    28  27  93 W3        29.85R
LUVERNE        CLOUDY    21  19  93 CALM      29.85S
MARSHALL       CLOUDY    26  24  92 CALM      29.84S
MONTEVIDEO     CLOUDY    32  28  86 W3        29.83S
PIPESTONE      CLOUDY    27  21  80 CALM      29.82R
REDWOOD FALLS  PTCLDY    30  27  88 NW6       29.84R WCI  24
TRACY          CLOUDY    29  26  86 SW6       29.83S WCI  23
WINDOM         PTCLDY    25  12  58 CALM      29.85R
WORTHINGTON    CLOUDY    26  24  92 CALM      29.85R
$$

IAZ001>003-012>014-020>022-031-032-NEZ013-014-SDZ071-201500-
NORTHWEST IOWA

CITY           SKY/WX    TMP DP  RH WIND       PRES   REMARKS
CHEROKEE       PTCLDY    25  25 100 CALM      29.86R
DENISON        CLOUDY    23  23 100 CALM      29.86R
ESTHERVILLE    CLOUDY    28  27  96 NW5       29.85R WCI  23
LE MARS        CLOUDY    25  23  93 CALM      29.86R
ORANGE CITY    CLOUDY    30  28  93 E3        29.85R
SHELDON        CLOUDY    23  23 100 CALM      29.84R
SIOUX CITY     CLOUDY    24  23  96 CALM      29.86R
SPENCER        CLOUDY    23  20  88 W3        29.85R
STORM LAKE     CLOUDY    30  28  93 NE9       29.84R WCI  22
$$

ABBREVIATIONS USED IN REMARKS
   TC - TEMPERATURE IN CELSIUS
  WCI - WIND CHILL INDEX
   HX - HEAT INDEX
  VSB - VISIBILITY





USA.gov is the U.S. government's official web portal to all federal, state and local government web resources and services.